NW Arkansas Airport, AR

8:22 PM CDT on June 24, 2017 (GMT -0500)
Northwest Arkansas Regional

Weather History for KXNA - October, 2012

Change the Weather History Date:

Tuesday, October 9, 2012

  Actual Average (KVBT) Record (KVBT)
Temperature  
Mean Temperature 50 °F -  
Max Temperature 63 °F 70 °F 91 °F (1963)
Min Temperature 37 °F 46 °F 30 °F (1952)
Degree Days  
Heating Degree Days 16    
Moisture  
Dew Point 48 °F    
Average Humidity 82    
Maximum Humidity 100    
Minimum Humidity 60    
Precipitation  
Precipitation 0.00 in - - ()
Sea Level Pressure  
Sea Level Pressure 30.00 in    
Wind  
Wind Speed 6 mph (SSW)    
Max Wind Speed 15 mph    
Max Gust Speed 24 mph    
Visibility 9 miles    
Events      
Averages and records for this station are not official NWS values.
T = Trace of Precipitation, MM = Missing Value Source: NWS Daily Summary

Daily Weather History Graph

Daily Weather History Graph

Search for Another Location

Airport or City:

Trip Planner

Search our weather history database for the weather conditions in past years. The results will help you decide how hot, cold, wet, or windy it might be!

Date:

Astronomy

Oct. 09, 2012 Rise Set
Actual Time 7:19 AM CDT 6:48 PM CDT
Civil Twilight 6:53 AM CDT 7:14 PM CDT
Nautical Twilight 6:23 AM CDT 7:44 PM CDT
Astronomical Twilight 5:54 AM CDT 8:13 PM CDT
Moon 1:07 AM CDT (10/9) 3:07 PM CDT (10/9)
Length of Visible Light 12h 20m
Length of Day
11h 29m
Last Quarter, 36% of the Moon is Illuminated
Oct 9
Last Quarter
Oct 15
New
Oct 21
First Quarter
Oct 29
Full
Nov 6
Last Quarter

Hourly Weather History & Observations

Time (CDT) Temp. Windchill Dew Point Humidity Pressure Visibility Wind Dir Wind Speed Gust Speed Precip Events Conditions
12:53 AM 43.0 °F - 39.0 °F 86% 30.06 in 10.0 mi Calm Calm - N/A   Clear
1:53 AM 39.9 °F - 37.9 °F 93% 30.06 in 10.0 mi Calm Calm - N/A   Clear
4:53 AM 37.9 °F 33.5 °F 37.0 °F 97% 30.03 in 10.0 mi SSE 5.8 mph - N/A   Clear
5:53 AM 39.0 °F 34.8 °F 37.0 °F 93% 30.02 in 10.0 mi South 5.8 mph - N/A   Clear
6:53 AM 37.9 °F 32.7 °F 37.0 °F 97% 30.03 in 10.0 mi South 6.9 mph - N/A   Clear
7:53 AM 39.0 °F 34.8 °F 39.0 °F 100% 30.03 in 10.0 mi SSE 5.8 mph - N/A   Clear
8:53 AM 46.9 °F - 43.0 °F 86% 30.03 in 10.0 mi SSE 10.4 mph - N/A   Clear
9:53 AM 53.1 °F - 44.1 °F 71% 30.01 in 10.0 mi South 15.0 mph 23.0 mph N/A   Clear
10:53 AM 57.9 °F - 45.0 °F 62% 30.00 in 10.0 mi South 15.0 mph 24.2 mph N/A   Clear
11:53 AM 61.0 °F - 46.9 °F 60% 29.97 in 10.0 mi South 12.7 mph 19.6 mph N/A   Overcast
12:50 PM 60.8 °F - 48.2 °F 63% 29.96 in 10.0 mi South 11.5 mph 21.9 mph N/A   Overcast
12:53 PM 61.0 °F - 48.0 °F 62% 29.95 in 10.0 mi South 12.7 mph - N/A   Overcast
1:53 PM 62.1 °F - 50.0 °F 65% 29.93 in 10.0 mi SSW 12.7 mph - N/A   Overcast
2:10 PM 62.6 °F - 50.0 °F 63% 29.93 in 10.0 mi South 15.0 mph - N/A   Overcast
2:53 PM 62.1 °F - 50.0 °F 65% 29.91 in 10.0 mi South 15.0 mph - N/A   Overcast
3:53 PM 62.1 °F - 50.0 °F 65% 29.91 in 10.0 mi South 6.9 mph - N/A   Overcast
4:53 PM 61.0 °F - 51.1 °F 70% 29.94 in 10.0 mi SSW 6.9 mph - N/A   Overcast
5:00 PM 60.8 °F - 51.8 °F 72% 29.94 in 10.0 mi WSW 9.2 mph - N/A   Overcast
5:53 PM 59.0 °F - 53.1 °F 81% 29.96 in 10.0 mi SW 6.9 mph - N/A   Overcast
6:53 PM 59.0 °F - 54.0 °F 83% 29.96 in 10.0 mi Calm Calm - N/A   Overcast
7:43 PM 57.2 °F - 53.6 °F 88% 29.98 in 10.0 mi Calm Calm - N/A   Overcast
7:53 PM 57.9 °F - 54.0 °F 87% 29.99 in 10.0 mi Calm Calm - N/A   Overcast
8:53 PM 57.9 °F - 55.0 °F 90% 30.01 in 10.0 mi West 3.5 mph - N/A   Overcast
9:53 PM 55.0 °F - 54.0 °F 96% 30.03 in 8.0 mi NNE 6.9 mph - N/A   Clear
10:15 PM 55.4 °F - 53.6 °F 94% 30.05 in 7.0 mi North 4.6 mph - N/A   Mostly Cloudy
10:41 PM 53.6 °F - 53.6 °F 100% 30.06 in 7.0 mi NW 3.5 mph - N/A   Scattered Clouds
10:53 PM 52.0 °F - 52.0 °F 100% 30.05 in 7.0 mi WNW 4.6 mph - N/A   Clear
11:53 PM 51.1 °F - 51.1 °F 100% 30.07 in 5.0 mi Calm Calm - N/A   Clear